Regional Weather Roundup
Issued by NWS

Home | Current Version | Previous Version | Text Only | Print | Product List | Glossary On
Versions: 1 2 3 4 5 6 7 8 9 10 11 12 13 14 15 16 17 18 19 20 21 22 23 24 25 26 27 28 29 30 31 32 33 34 35 36 37 38 39 40 41 42 43 44 45 46 47 48 49 50
000
ASUS43 KMKX 280421
RWRWI

WISCONSIN REGIONAL WEATHER ROUNDUP
NATIONAL WEATHER SERVICE MILWAUKEE/SULLIVAN WI
1100 PM CDT SUN JUL 27 2014

NOTE: "FAIR" INDICATES FEW OR NO CLOUDS BELOW 12,000 FEET WITH NO
SIGNIFICANT WEATHER AND/OR OBSTRUCTIONS TO VISIBILITY.

WIZ001-002-006>008-014>016-023>028-280500-
NORTHWEST WISCONSIN

CITY           SKY/WX    TMP DP  RH WIND       PRES   REMARKS
SUPERIOR ARPT  CLOUDY    56  55  95 CALM      30.09S
ASHLAND        CLEAR     53  52  96 W3        30.10S
HAYWARD        MOCLDY    51  50  96 CALM      30.10R
SIREN          MOCLDY    58  55  89 NW5       30.12R
RICE LAKE      CLEAR     55  52  89 CALM      30.12R
LADYSMITH      MOCLDY    56  52  86 NW8       30.11R
EAU CLAIRE     CLEAR     57  52  83 NW6       30.08R
MENOMONIE      CLEAR     58  54  86 W6        30.10S
NEW RICHMOND   CLOUDY    58  56  93 CALM      30.12R
OSCEOLA        CLOUDY    61  59  93 NW3       30.14S
$$

WIZ003>005-009-010-017-018-280500-
NORTH CENTRAL WISCONSIN

CITY           SKY/WX    TMP DP  RH WIND       PRES   REMARKS
WOODRUFF       CLEAR     52  49  90 N3        30.07R
RHINELANDER    CLEAR     53  50  89 N3        30.06R
EAGLE RIVER    PTCLDY    53  48  83 N6        30.05R
LAND O LAKES   CLOUDY    55  50  82 N8        30.06S
PHILLIPS       CLEAR     52  51  95 CALM      30.08R
TOMAHAWK       CLEAR     51  48  92 CALM      30.06S
MEDFORD        CLEAR     53  50  89 N8        30.06R
MERRILL        CLEAR     53  51  94 N5        30.05R
$$

WIZ029-030-035-036-043>047-280500-
CENTRAL WISCONSIN

CITY           SKY/WX    TMP DP  RH WIND       PRES   REMARKS
WAUSAU         CLEAR     57  52  83 N6        30.02R
MOSINEE        CLEAR     55  52  88 N6        30.04R
MARSHFIELD     CLEAR     56  51  84 NW9       30.04R
STEVENS POINT  CLEAR     55  51  86 N3        30.03R
WAUPACA        CLEAR     59  53  78 NW7       30.01R
WAUTOMA        CLEAR     60  54  80 N5        30.01R
WISC RAPIDS    CLEAR     59  53  80 MISG      30.04R
CAMP DOUGLAS   CLEAR     59  58  99 NW5       30.04R
$$

WIZ011>013-019>022-031-037>040-048>050-280500-
NORTHEAST WISCONSIN

CITY           SKY/WX    TMP DP  RH WIND       PRES   REMARKS
ANTIGO         CLEAR     52  50  92 NW7       30.03R
STURGEON BAY   CLEAR     59  48  67 N17G28    29.96R
GREEN BAY      CLEAR     60  52  74 NW10      29.97R
MANITOWOC      CLOUDY    63  51  65 N14       29.93R
APPLETON       PTCLDY    57  52  82 N13       29.98R
CLINTONVILLE   CLEAR     59  50  72 N7        30.00R
OSHKOSH        CLEAR     61  54  77 N12       29.96S
$$

WIZ032>034-041-042-053>061-280500-
SOUTHWEST WISCONSIN

CITY           SKY/WX    TMP DP  RH WIND       PRES   REMARKS
LA CROSSE      CLEAR     64  55  72 N9        30.05R
SPARTA         PTCLDY    61  54  78 N3        30.06R
VIROQUA        CLOUDY    63  57  82 N13       30.04R
BOSCOBEL       CLOUDY    66  60  81 N3        30.02R
PRAIRIE DU CHI CLEAR     67  57  70 N8        30.00R
PLATTEVILLE    FAIR      64  61  90 N8        30.00S
$$

WIZ056-057-062-063-064-067-068-280500-
SOUTH CENTRAL WISCONSIN

CITY           SKY/WX    TMP DP  RH WIND       PRES   REMARKS
BARABOO/DELLS  PTCLDY    62  54  74 N6        30.01R
LONE ROCK      CLOUDY    70  60  70 N8        30.00R
WATERTOWN      CLOUDY    62  57  83 N10G18    29.96R
MADISON        MOCLDY    64  56  75 N18       29.98R
MIDDLETON      MOCLDY    64  58  81 N12       30.00R
MONROE         CLOUDY    63  61  94 N12       29.97R
JANESVILLE     PTCLDY    66  55  68 N14G22    29.95R
$$

WIZ051-052-058>065-066-070>072-280500-
SOUTHEAST WISCONSIN

CITY           SKY/WX    TMP DP  RH WIND       PRES   REMARKS
MILWAUKEE      MOCLDY    63  53  70 N12       29.92R
WAUKESHA       CLEAR     59  52  77 N10       29.95R
MILWAUKEE/TIMM CLEAR     61  52  72 N10       29.94R
RACINE         CLOUDY    63  56  78 N14       29.93R
BURLINGTON     MOCLDY    62  54  74 N13G23    29.94R
KENOSHA        CLOUDY    64  57  78 N8G20     29.92R
FOND DU LAC    PTCLDY    62  54  74 N13       29.96R
SHEBOYGAN      CLOUDY    63  51  65 N14G21    29.93R
WEST BEND      CLEAR     59  50  72 N8G17     29.94R
JUNEAU         CLEAR     61  54  77 N10G18    29.98R
$$

LSZ147-162-280500-
LAKE SUPERIOR

STATION/POSITION TIME  TEMP    WIND        PRES    WAVE
                       AIR SEA DIR/SP/G            HT/PER
                 (UTC) (F)     (DEG/KT/KT) (MB)    (FT/S)
W MID LAKE BUOY  0350   50 43  280/  8/ 10 1018.5R   1/ 5
PORT WING        0300   57      CALM  /  4 1018.6R
SAXON HARBOR     0300             CALM     1018.6R
$$

LMZ867-665-643>646-280500-
LAKE MICHIGAN

STATION/POSITION TIME  TEMP    WIND        PRES    WAVE
                       AIR SEA DIR/SP/G            HT/PER
                 (UTC) (F)     (DEG/KT/KT) (MB)    (FT/S)
N MID LAKE BUOY  0350   57 55  340/ 19/ 23 1011.6R   3/ 5
NORTHPORT PIER   0300   61     340/ 23/ 28 1013.2R
KEWAUNEE LAKESHO 0400   62     340/ 11/ 19 1014.3R
SHEBOYGAN LAKESH 0400   62     340/ 18/ 23 1013.3R
PORT WASHINGTON  0340   64     330/  6/ 12 1013.5R
ATWATER BUOY     0400   63     340/ 14     1014.1R
MILWAUKEE LAKESH 0400   64     330/ 12/ 16   N/A
S MID LAKE BUOY  0350   62 61  340/ 27/ 31 1010.4R   6/ 6
KENOSHA   LAKESH 0400   64     360/ 22/ 28 1012.5R
$$

TC  - TEMPERATURE IN CELSIUS
VSB - VISIBILITY IN STATUTE MILES
WCI - WIND CHILL INDEX
HX  - HEAT INDEX




USA.gov is the U.S. government's official web portal to all federal, state and local government web resources and services.